www.pogodaiklimat.ru

Погода и климат >> Архив погоды >> Норвегия >> Вега-Валсё


ПОГОДА в Вега-Валсё

  • Прогноз погоды в Вега-Валсё
  • Монитор погоды в Вега-Валсё

АРХИВ ПОГОДЫ в Вега-Валсё

Время (UTC), дата Ветер
(напр.,м/с)
 
Видим.   Явления Облачность Т
(С)
Тd
(С)
f
(%)
Тe
(С)
Тes
(С)
Комфортность P
(гПа)
Po
(гПа)
Тmin
(С)
Tmax
(С)
R
(мм)
R24
(мм)
S
(см)
19 10.06 С 4
{6}
н/о н/о +7.6 +6 +6 1021.9 1020.8
20 10.06 С 5
{7}
н/о н/о +7.8 +5 +5 1022.4 1021.3
21 10.06 СЗ 4
{8}
н/о н/о +7.4 +5 +5 1023.1 1022.0
22 10.06 СЗ 3
{7}
н/о н/о +7.3 +6 +6 1023.8 1022.7
23 10.06 СЗ 4
{6}
н/о н/о +7.1 +5 +5 1024.2 1023.1
00 11.06 СЗ 3
{8}
н/о н/о +7.0 +5 +5 1024.6 1023.5
01 11.06 С 4
{6}
н/о н/о +7.5 +5 +5 1025.1 1024.0
02 11.06 СЗ 3
{7}
н/о н/о +7.6 +6 +6 1025.3 1024.2
03 11.06 С 3
{5}
>70 км 6/5 1000 м
[Sc Ac trans Ci fib]
+7.8 1025.6 1024.5
04 11.06 В 2
{4}
н/о н/о +7.8 +7 +7 1025.9 1024.8
05 11.06 С 2
{4}
н/о н/о +7.9 +7 +7 1026.7 1025.6
06 11.06 С 1
{7}
70 км 6/0 2000 м
[Ac trans Ci sp]
+8.7 +9 +13 1027.4 1026.3 +6.7 +8.7
07 11.06 С 4
{5}
н/о н/о +8.5 +7 +7 1028.1 1027.0
08 11.06 н/о
09 11.06 С 2
{3}
н/о н/о +9.7 +9 +9 1029.3 1028.2
10 11.06 С 6
{7}
н/о н/о +9.7 +7 +7 1029.6 1028.5
11 11.06 С 6
{8}
н/о н/о +10.0 +8 +8 1029.8 1028.7
12 11.06 С 7
{9}
70 км 6/5 1500 м
[St As trans Ci fib]
+9.9 +7 +9 1030.1 1029.0
13 11.06 С 7
{10}
н/о н/о +9.9 +7 +7 1030.1 1029.0
14 11.06 С 8
{10}
н/о н/о +9.8 +7 +7 1030.1 1029.0
15 11.06 С 7
{9}
н/о н/о +9.9 +7 +7 1030.1 1029.0
16 11.06 С 7
{9}
н/о н/о +9.8 +7 +7 1030.3 1029.2
17 11.06 С 8
{10}
н/о н/о +9.6 +7 +7 1030.5 1029.4
18 11.06 С 7
{10}
>70 км ясно +9.6 +7 +7 1030.4 1029.3 +8.4 +10.6
19 11.06 С 6
{8}
н/о н/о +9.6 +7 +7 1030.3 1029.2
20 11.06 С 6
{9}
н/о н/о +9.2 +7 +7 1030.3 1029.2
21 11.06 С 6
{9}
н/о н/о +8.8 +6 +6 1030.2 1029.1
22 11.06 С 5
{8}
н/о н/о +8.4 +6 +6 1030.0 1028.9
23 11.06 С 4
{7}
н/о н/о +8.2 +6 +6 1029.7 1028.6
00 12.06 С 5
{9}
н/о н/о +8.1 +6 +6 1029.5 1028.4
01 12.06 С 5
{8}
н/о н/о +8.3 +6 +6 1029.3 1028.2
02 12.06 С 4
{8}
н/о н/о +8.4 +7 +7 1029.1 1028.0
03 12.06 СВ 3
{7}
>70 км ясно +8.8 +8 +8 1028.8 1027.7
04 12.06 С 3
{5}
н/о н/о +9.5 +8 +8 1028.4 1027.3
05 12.06 СВ 4
{6}
н/о н/о +9.7 +8 +8 1028.0 1026.9
06 12.06 СВ 4
{8}
н/о н/о +10.3 +9 +9 1027.9 1026.8 +8.1 +10.4
07 12.06 С 4
{5}
н/о н/о +11.1 +10 +10 1027.6 1026.5
08 12.06 С 4
{6}
н/о н/о +11.3 +10 +10 1027.3 1026.2
09 12.06 С 6
{7}
н/о н/о +11.5 +10 +10 1026.9 1025.8
10 12.06 С 6
{8}
н/о н/о +11.5 +10 +10 1026.5 1025.4
11 12.06 С 6
{9}
н/о н/о +11.9 +10 +10 1025.9 1024.8
12 12.06 С 6
{9}
>70 км ясно +12.0 +10 +15 1025.5 1024.4
13 12.06 С 6
{8}
н/о н/о +12.2 +10 +10 1024.5 1023.4
14 12.06 С 7
{9}
н/о н/о +12.2 +10 +10 1023.8 1022.7
15 12.06 С 5
{9}
н/о н/о +11.5 +10 +10 1023.1 1022.0
16 12.06 С 7
{9}
н/о н/о +11.1 +9 +9 1022.4 1021.3
17 12.06 С 6
{9}
н/о н/о +10.8 +9 +9 1022.0 1020.9
18 12.06 СВ 2
{9}
>70 км 5/4 1000 м
[Cu med, cong Ac cast Ci fib]
+11.6 +11 +12 1021.7 1020.6 +10.3 +12.9
19 12.06 С 1
{4}
н/о н/о +11.1 +12 +12 1021.4 1020.3
20 12.06 С 4
{7}
н/о н/о +9.9 +8 +8 1021.2 1020.1
21 12.06 С 5
{8}
н/о н/о +9.6 +8 +8 1020.9 1019.8
22 12.06 СВ 2
{5}
н/о н/о +9.8 +9 +9 1020.8 1019.7
23 12.06 ЮВ 1
{4}
н/о н/о +8.9 +10 +10 1020.5 1019.4
00 13.06 В 1
{8}
н/о н/о +8.9 +10 +10 1020.0 1018.9 0.1
01 13.06 ЮВ 3
{5}
н/о н/о +9.9 +9 +9 1019.5 1018.4
02 13.06 ЮВ 6
{10}
н/о н/о +11.7 +10 +10 1018.9 1017.8
03 13.06 ЮВ 4
{8}
>70 км 6/5 1000 м
[Cu hum Ac und Ci sp]
+11.3 +10 +10 1018.2 1017.1
04 13.06 ЮВ 2
{5}
н/о н/о +10.8 +11 +11 1018.0 1016.9
05 13.06 ЮВ 4
{7}
н/о н/о +11.6 +10 +10 1017.5 1016.4
06 13.06 ЮВ 6
{11}
н/о н/о +11.0 +9 +9 1017.0 1015.9 +8.7 +11.9 0.1
07 13.06 ЮВ 4
{8}
н/о н/о +10.6 +9 +9 1017.2 1016.1
08 13.06 В 4
{8}
н/о н/о +10.8 +9 +9 1017.4 1016.3
09 13.06 В 5
{8}
н/о н/о +12.6 +11 +11 1016.9 1015.8
10 13.06 В 6
{9}
н/о н/о +15.0 +14 +14 1016.5 1015.4
11 13.06 В 7
{10}
н/о н/о +15.3 +14 +14 1016.2 1015.1
12 13.06 В 5
{10}
>70 км 6/0
[Ac lent Ci sp]
+17.5 +17 +21 1016.2 1015.1
13 13.06 ЮВ 5
{8}
н/о н/о +18.3 +18 +18 1015.8 1014.7
14 13.06 ЮВ 5
{8}
н/о н/о +18.1 +18 +18 1015.4 1014.3
15 13.06 ЮВ 5
{11}
н/о н/о +18.8 +18 +18 1015.3 1014.2
16 13.06 ЮВ 6
{9}
н/о н/о +17.2 +16 +16 1015.2 1014.1
17 13.06 ЮВ 3
{10}
н/о н/о +16.7 +17 +17 1015.4 1014.3
18 13.06 ЮВ 5
{11}
>70 км 6/0 2000 м
[Ac cuf Ci sp]
+16.2 +15 +16 1015.8 1014.7 +10.1 +18.9
19 13.06 ЮВ 5
{8}
н/о н/о +15.7 +15 +15 1015.9 1014.8
20 13.06 ЮВ 4
{9}
н/о н/о +14.7 +14 +14 1016.5 1015.4
21 13.06 ЮВ 4
{6}
н/о н/о +14.0 +13 +13 1016.8 1015.7
22 13.06 ЮВ 3
{6}
н/о н/о +13.7 +13 +13 1017.1 1016.0
23 13.06 ЮВ 5
{9}
н/о н/о +14.1 +13 +13 1017.5 1016.4
00 14.06 ЮВ 5
{9}
н/о н/о +13.9 +13 +13 1017.6 1016.5
01 14.06 ЮВ 6
{9}
н/о н/о +13.7 +12 +12 1017.6 1016.5
02 14.06 ЮВ 5
{8}
н/о н/о +13.6 +12 +12 1017.7 1016.6
03 14.06 ЮВ 4
{7}
н/о н/о +13.6 +13 +13 1017.6 1016.5
04 14.06 В 3
{6}
н/о н/о +12.9 +12 +12 1017.8 1016.7
05 14.06 В 3
{5}
н/о н/о +13.0 +12 +12 1017.5 1016.4
06 14.06 В 2
{9}
10 км дождь 8/6 1000 м
[Sc Ac cuf Ci sp]
+12.6 +13 +14 1017.9 1016.8 +12.6 +16.4 0.1
07 14.06 В 2
{4}
н/о н/о +12.3 +12 +12 1018.2 1017.1 0.5
08 14.06 ЮВ 4
{6}
н/о н/о +13.2 +12 +12 1018.2 1017.1
09 14.06 ЮВ 5
{7}
н/о н/о +14.7 +14 +14 1018.1 1017.0
10 14.06 З 2
{8}
н/о н/о +14.0 +14 +14 1018.4 1017.3
11 14.06 С 3
{4}
н/о н/о +13.5 +13 +13 1018.4 1017.3
12 14.06 СВ 3
{8}
20 км слаб. дождь 6/5 1000 м
[Sc Ac cuf Ci sp]
+13.5 +13 +18 1018.3 1017.2 0.5
13 14.06 В 2
{4}
н/о н/о +13.7 +14 +14 1018.3 1017.2 0.4
14 14.06 ЮВ 2
{4}
н/о н/о +13.9 +14 +14 1017.9 1016.8 0.5
15 14.06 С 2
{4}
н/о н/о +12.4 +12 +12 1017.8 1016.7
16 14.06 Ю 1
{3}
н/о н/о +13.1 +14 +14 1017.6 1016.5
17 14.06 З 2
{2}
н/о н/о +12.0 +12 +12 1017.3 1016.2
18 14.06 СЗ 1
{4}
5000 м слаб. дождь 8/6 1000 м
[Sc Ac cuf Ci ing]
+11.8 +13 +13 1017.2 1016.1 +11.7 +15.4 1
19 14.06 З 1
{3}
н/о н/о +11.0 +12 +12 1017.3 1016.2
20 14.06 З 2
{3}
н/о н/о +11.0 +11 +11 1017.2 1016.1
21 14.06 З 1
{3}
н/о н/о +10.8 +12 +12 1017.6 1016.5
22 14.06 З 2
{3}
н/о н/о +10.7 +10 +10 1017.2 1016.1
23 14.06 СЗ 2
{3}
н/о н/о +10.6 +10 +10 1017.3 1016.2
00 15.06 СЗ 2
{3}
н/о н/о +10.6 +10 +10 1017.7 1016.6
01 15.06 З 1
{2}
н/о н/о +10.6 +11 +11 1017.6 1016.5
02 15.06 СЗ 1
{2}
н/о н/о +10.7 +11 +11 1017.4 1016.3
03 15.06 Ю 1
{2}
>70 км 5/0 2000 м
[As trans Ci sp]
+11.2 +12 +12 1017.3 1016.2
04 15.06 СЗ 2
{2}
н/о н/о +11.0 +11 +11 1017.7 1016.6
05 15.06 С 1
{3}
н/о н/о +11.2 +12 +12 1017.8 1016.7
06 15.06 С 1
{3}
н/о н/о +11.4 +12 +12 1018.1 1017.0 +10.5 +11.8
07 15.06 СЗ 1
{2}
н/о н/о +11.6 +12 +12 1018.5 1017.4
08 15.06 СЗ 2
{3}
н/о н/о +11.7 +12 +12 1018.9 1017.8
09 15.06 З 1
{2}
н/о н/о +12.0 +13 +13 1019.2 1018.1
10 15.06 СЗ 2
{2}
н/о н/о +12.7 +13 +13 1019.4 1018.3
11 15.06 СЗ 2
{3}
н/о н/о +12.0 +12 +12 1019.7 1018.6
12 15.06 СЗ 3
{4}
>70 км 6/0 2000 м
[As trans Ci sp]
+12.2 +12 +18 1020.0 1018.9
13 15.06 С 2
{3}
н/о н/о +11.9 +12 +12 1020.0 1018.9
14 15.06 С 2
{3}
н/о н/о +12.6 +13 +13 1019.8 1018.7
15 15.06 С 2
{4}
н/о н/о +12.8 +13 +13 1019.4 1018.3
16 15.06 С 2
{4}
н/о н/о +12.1 +12 +12 1019.2 1018.1
17 15.06 С 3
{4}
н/о н/о +11.6 +11 +11 1019.0 1017.9
18 15.06 С 3
{4}
>70 км 5/0 2000 м
[As trans Ci sp]
+11.3 +10 +12 1018.5 1017.4 +11.1 +13.1
19 15.06 С 3
{4}
н/о н/о +10.9 +10 +10 1018.5 1017.4
20 15.06
{5}
н/о н/о +10.4 1018.3 1017.2
21 15.06 С 5
{6}
н/о н/о +10.1 +8 +8 1018.0 1016.9
22 15.06 С 4
{6}
н/о н/о +10.0 +8 +8 1017.8 1016.7
23 15.06 С 5 н/о н/о +9.8 1017.3 1016.2
00 16.06 С 4
{7}
н/о н/о +9.8 +8 +8 1017.0 1015.9
01 16.06 С 4
{7}
н/о н/о +9.7 +8 +8 1016.4 1015.3
02 16.06 С 4
{7}
н/о н/о +9.6 +8 +8 1015.8 1014.7
03 16.06 СВ 4
{7}
н/о н/о +10.0 +8 +8 1015.4 1014.3
04 16.06 С 4
{6}
н/о н/о +10.5 +9 +9 1015.4 1014.3
05 16.06 С 4
{6}
н/о н/о +10.5 +9 +9 1014.8 1013.7
06 16.06 С 4
{7}
н/о н/о +11.1 +10 +10 1014.4 1013.3 +9.5 +11.3
07 16.06 С 4
{6}
н/о н/о +11.6 +10 +10 1014.2 1013.1
08 16.06 С 4
{6}
н/о н/о +11.8 +11 +11 1013.8 1012.7
09 16.06 С 5
{6}
н/о н/о +12.2 +11 +11 1013.6 1012.5
10 16.06 С 5
{7}
н/о н/о +12.2 +11 +11 1013.1 1012.0
11 16.06 С 5
{6}
н/о н/о +12.8 +11 +11 1012.8 1011.7
12 16.06 С 5
{7}
>70 км ясно +13.3 +12 +18 1012.6 1011.5
13 16.06 С 5
{7}
н/о н/о +13.0 +12 +12 1012.2 1011.1
14 16.06 С 4
{7}
н/о н/о +13.1 +12 +12 1011.9 1010.8
15 16.06 С 3
{6}
н/о н/о +13.1 +13 +13 1011.6 1010.5
16 16.06
{6}
н/о н/о +12.7 1011.3 1010.2
17 16.06 С 4
{5}
н/о н/о +12.3 +11 +11 1011.0 1009.9
18 16.06 С 4
{7}
>70 км ясно +11.2 +10 +11 1011.1 1010.0 +11.1 +13.5
19 16.06 С 3
{5}
н/о н/о +10.6 +10 +10 1011.2 1010.1
20 16.06 СЗ 3
{5}
н/о н/о +10.0 +9 +9 1011.7 1010.6
21 16.06 С 2
{4}
н/о н/о +9.7 +9 +9 1011.8 1010.7
22 16.06 СЗ 2
{4}
н/о н/о +9.3 +9 +9 1012.0 1010.9
23 16.06 С 1
{3}
н/о н/о +9.1 +10 +10 1012.3 1011.2
00 17.06 СЗ 2
{5}
н/о н/о +9.1 +9 +9 1012.3 1011.2
01 17.06 З 2
{3}
н/о н/о +9.2 +9 +9 1012.5 1011.4
02 17.06 З 2
{3}
н/о н/о +9.1 +9 +9 1012.6 1011.5
03 17.06 З 2
{4}
20 км 6/5 300 м
[St Ac cuf Ci fib]
+9.1 +9 +9 1012.8 1011.7
04 17.06 З 2
{4}
н/о н/о +9.3 +9 +9 1012.6 1011.5
05 17.06 З 3
{4}
н/о н/о +9.8 +9 +9 1012.6 1011.5
06 17.06 ЮЗ 2
{5}
н/о н/о +9.9 +10 +10 1012.5 1011.4 +9.0 +11.3 0.1
07 17.06 ЮЗ 4
{6}
н/о н/о +9.8 +8 +8 1012.7 1011.6
08 17.06 ЮЗ 4
{6}
н/о н/о +9.7 +8 +8 1012.9 1011.8
09 17.06 ЮЗ 4
{6}
н/о н/о +9.9 +8 +8 1013.1 1012.0
10 17.06 ЮЗ 4
{5}
н/о н/о +9.8 +8 +8 1013.2 1012.1 0.9
11 17.06 З 4
{5}
н/о н/о +9.5 +8 +8 1013.5 1012.4 2
12 17.06 З 3
{6}
65 км слаб. дождь 9/8 300 м
[St As op Ci sp]
+9.9 +9 +10 1013.7 1012.6 4
13 17.06 ЮЗ 4
{6}
н/о н/о +10.8 +9 +9 1013.4 1012.3
14 17.06 З 4
{5}
н/о н/о +11.1 +10 +10 1013.3 1012.2
15 17.06 ЮЗ 4
{5}
н/о н/о +11.7 +10 +10 1013.2 1012.1
16 17.06 ЮЗ 5 н/о н/о +11.3 1012.8 1011.7
17 17.06 ЮЗ 4
{6}
н/о н/о +11.4 +10 +10 1012.5 1011.4
18 17.06 ЮЗ 4
{7}
20 км 8/6 300 м
[Sc As op Ci fib]
+11.3 +10 +10 1012.0 1010.9 +9.4 +12.0
19 17.06 З 1
{4}
н/о н/о +11.9 +13 +13 1011.5 1010.4
20 17.06 С 1
{1}
н/о н/о +10.6 +11 +11 1011.4 1010.3

 

Местоположение метеостанции Вега-Валсё (Норвегия): широта 65.70 долгота 11.85 высота над уровнем моря 4 м.

В архиве по умолчанию представлена погода в Вега-Валсё за последнюю неделю. Архивные данные за месяц целиком и за предыдущие месяцы, начиная с января 2011 года, Вы можете получить, выбрав интересующий диапазон дат из раскрывающегося списка и нажав кнопку "Ввод!".


*Определитесь, кто Вы:
робот инопланетянин человек

Внимание! Время в таблицах - всемирное. Для получения местного времени необходимо прибавить поправку, которая равна 1 ч.

Смотрите также архив погоды в соседних городах и на ближайших метеорологических станциях:

Погода в Хьётте (Норвегия) (30 км)
Погода в Брённёйсунн аэропорту (Норвегия) (32 км)
Погода в Саннесшёэн аэропорту (Норвегия) (40 км)
Погода на Сомна-Квалёйа (Норвегия) (54 км)
Погода в Мосьен аэропорту (Норвегия) (63 км)
Погода в Лаксфорсе (Норвегия) (67 км)
Погода на Маяке Sklinna (Норвегия) (68 км)
Погода в Солвер III (Норвегия) (82 км)
Погода в Маяватн (Норвегия) (92 км)
Погода в Сельджеля (Норвегия) (92 км)

Пояснения к столбцам:

Ветер - указаны скорость ветра в м/с - средняя за 10 мин, порывы в срок и между сроками (в фигурных скобках) и направление, откуда дует ветер: С - северный, СВ - северо-восточный, В - восточный, ЮВ - юго-восточный, Ю - южный, ЮЗ - юго-западный, З - западный, СЗ - северо-западный.
Видимость - горизонтальная дальность видимости в метрах или километрах. При видимости от 1 до 10 км при отсутствии осадков обычно наблюдается дымка, при ухудшении видимости до 1 км и менее - туман. В сухую погоду видимость может ухудшаться дымом, пылью или мглою.
Явления - указаны атмосферные явления, наблюдавшиеся в срок или в последний час перед сроком; фигурными скобками обозначены явления, наблюдавшиеся между сроками (за 1-3 часа до срока); квадратными скобками обозначены град или гололедные отложения с указанием их диаметра в мм.
Облачность - указаны через наклонную черту общая и нижняя облачность в баллах и высота нижней границы облаков в метрах; квадратными скобками обозначены формы облаков: Ci - перистые, Cs - перисто-слоистые, Cc - перисто-кучевые, Ac - высококучевые, As - высокослоистые, Sc - слоисто-кучевые, Ns - слоисто-дождевые, Cu - кучевые, Cb - кучево-дождевые. Подробнее классификацию облаков см. в Атласе облаков (PDF).
T - Температура воздуха - температура, измеренная на высоте 2 м над землей.
Td - Температура точки росы - температура, при понижении до которой содержащийся в воздухе водяной пар достигнет насыщения.
f - Относительная влажность воздуха - влажноcть воздуха, измеренная на высоте 2 м над землей.
Te - Эффективная температура - температура, которую ощущает одетый по сезону человек в тени. Характеристика душности погоды. При расчете учитывается влияние влажности воздуха и скорости ветра на теплоощущения человека.
Tes - Эффективная температура на солнце - температура, которую ощущает человек, с поправкой на солнечный нагрев. Характеристика знойности погоды. Зависит от высоты солнца над горизонтом, облачности и скорости ветра. Ночью, в пасмурную погоду, а также при ветре 12 м/с и более поправка равна нулю.
P - Атмосферное давление - приведенное к уровню моря атмосферное давление.
Po - Атмосферное давление - измеренное на уровне метеостанции атмосферное давление.
Tmin - Минимальная температура - минимум температуры воздуха на высоте 2 м над землей.
Tmax - Максимальная температура - максимум температуры воздуха на высоте 2 м над землей.
R - Количество осадков - Количество выпавших осадков за период времени, мм. При наведении курсора мыши на число - период времени, за который выпало указанное количество осадков.
R24 - Количество осадков - Количество выпавших осадков за 24 часа, мм.
S - Снежный покров - Высота снежного покрова, см. При наведении курсора мыши на число - состояние снежного покрова и степень покрытия местности в баллах.